Location: Unspecified
(35.6961°N, 0.0000°E)
Time: 00:29:22
(UTC+00:00)

Vanguard 2 Rocket - Pass Details

Date: 31 May 2019
Orbit: 554 x 3326 km, 32.9° (Epoch: 15 June)

Event Time Altitude Azimuth Distance (km) Brightness Sun altitude
Rises 08:22:58 0° 281° (W) 7,037 11.0 41.6°
Reaches altitude 10° 08:28:13 10° 279° (W) 5,742 10.6 42.7°
Maximum altitude 08:43:54 58° 206° (SSW) 2,258 9.4 45.9°
Drops below altitude 10° 08:52:54 10° 129° (SE) 3,435 10.6 47.7°
Sets 08:55:16 0° 125° (SE) 4,126 10.8 48.1°
